SDG090 LIPB-LICC

Flight info

Callsign SDG090
Flight time 1h 33m
Altitude 35000
Route ELB LIBRO CTF23 D270U NASOM
Aircraft A321/M-L/C

Departure

Time 2026-04-26 16:09
Airport Bolzano Airport (LIPB)

Arrival

Time 2026-04-26 17:42
Airport Catania-Fontanarossa Airport (LICC)
Time Latitude Longitude Altitude Speed Heading
2026-04-26 16:06 46.46410 11.32837 883 ft 0 kts 46°
2026-04-26 16:06 46.46411 11.32839 883 ft 1 kts 46°
2026-04-26 16:07 46.46435 11.32864 883 ft 7 kts 21°
2026-04-26 16:07 46.46490 11.32882 883 ft 8 kts 10°
2026-04-26 16:07 46.46554 11.32898 883 ft 9 kts 10°
2026-04-26 16:07 46.46612 11.32914 882 ft 5 kts 10°
2026-04-26 16:08 46.46655 11.32922 882 ft 6 kts 347°
2026-04-26 16:08 46.46681 11.32864 881 ft 8 kts 284°
2026-04-26 16:08 46.46653 11.32813 881 ft 8 kts 193°
2026-04-26 16:08 46.46452 11.32764 881 ft 71 kts 190°
2026-04-26 16:09 46.45672 11.32559 884 ft 154 kts 190°
2026-04-26 16:09 46.44477 11.32274 1334 ft 183 kts 186°
2026-04-26 16:09 46.43221 11.32026 2328 ft 183 kts 188°
2026-04-26 16:09 46.42022 11.31744 3247 ft 184 kts 189°
2026-04-26 16:10 46.40724 11.31430 3921 ft 196 kts 189°
2026-04-26 16:10 46.39359 11.31100 4329 ft 206 kts 189°
2026-04-26 16:10 46.37880 11.30743 4646 ft 221 kts 189°
2026-04-26 16:10 46.36333 11.30370 5084 ft 231 kts 189°
2026-04-26 16:11 46.34737 11.29984 5656 ft 236 kts 189°
2026-04-26 16:11 46.33154 11.29598 6428 ft 232 kts 189°
2026-04-26 16:11 46.31554 11.29205 7104 ft 234 kts 189°
2026-04-26 16:11 46.29957 11.28808 7679 ft 237 kts 189°
2026-04-26 16:12 46.28331 11.28401 7957 ft 238 kts 189°
2026-04-26 16:12 46.26711 11.27991 7972 ft 237 kts 189°
2026-04-26 16:12 46.23430 11.27149 8295 ft 244 kts 189°
2026-04-26 16:13 46.21786 11.26725 9003 ft 242 kts 189°
2026-04-26 16:13 46.20106 11.26290 9570 ft 248 kts 189°
2026-04-26 16:13 46.18381 11.25845 10066 ft 257 kts 189°
2026-04-26 16:13 46.16632 11.25396 10697 ft 260 kts 189°
2026-04-26 16:14 46.14830 11.24938 11359 ft 263 kts 189°
2026-04-26 16:14 46.13040 11.24490 12006 ft 265 kts 189°
2026-04-26 16:14 46.09370 11.23596 13189 ft 272 kts 189°
2026-04-26 16:15 46.07484 11.23150 13709 ft 274 kts 189°
2026-04-26 16:15 46.05619 11.22720 14224 ft 276 kts 189°
2026-04-26 16:15 46.03721 11.22297 14756 ft 278 kts 189°
2026-04-26 16:16 45.99881 11.21479 15880 ft 283 kts 190°
2026-04-26 16:16 45.97921 11.20985 16217 ft 295 kts 191°
2026-04-26 16:16 45.95834 11.20421 16483 ft 310 kts 192°
2026-04-26 16:16 45.93677 11.19834 16745 ft 324 kts 191°
2026-04-26 16:17 45.91443 11.19232 17001 ft 337 kts 191°
2026-04-26 16:17 45.89079 11.18600 17252 ft 351 kts 191°
2026-04-26 16:17 45.86634 11.17951 17497 ft 364 kts 191°
2026-04-26 16:17 45.84087 11.17277 17719 ft 376 kts 191°
2026-04-26 16:18 45.81498 11.16594 17927 ft 387 kts 191°
2026-04-26 16:18 45.76060 11.15165 18316 ft 409 kts 191°
2026-04-26 16:19 45.70329 11.13665 18730 ft 427 kts 191°
2026-04-26 16:19 45.67406 11.12900 19118 ft 428 kts 191°
2026-04-26 16:19 45.61534 11.11365 19976 ft 431 kts 191°
2026-04-26 16:20 45.58587 11.10596 20368 ft 433 kts 191°
2026-04-26 16:20 45.52607 11.09036 21123 ft 439 kts 191°
2026-04-26 16:20 45.49624 11.08259 21495 ft 441 kts 191°
2026-04-26 16:21 45.46595 11.07471 21858 ft 444 kts 191°
2026-04-26 16:21 45.43537 11.06676 22221 ft 446 kts 191°
2026-04-26 16:21 45.40497 11.05887 22577 ft 449 kts 191°
2026-04-26 16:21 45.37387 11.05080 22921 ft 452 kts 191°
2026-04-26 16:22 45.34301 11.04280 23236 ft 455 kts 191°
2026-04-26 16:22 45.31159 11.03466 23536 ft 458 kts 191°
2026-04-26 16:22 45.28025 11.02656 23821 ft 461 kts 191°
2026-04-26 16:22 45.24857 11.01837 24101 ft 464 kts 191°
2026-04-26 16:23 45.21710 11.01025 24390 ft 466 kts 191°
2026-04-26 16:23 45.18509 11.00200 24691 ft 468 kts 191°
2026-04-26 16:23 45.15281 10.99368 24989 ft 470 kts 191°
2026-04-26 16:23 45.12064 10.98541 25285 ft 472 kts 191°
2026-04-26 16:24 45.08843 10.97714 25580 ft 474 kts 192°
2026-04-26 16:24 45.05577 10.96876 25955 ft 473 kts 192°
2026-04-26 16:24 45.02350 10.96050 26364 ft 472 kts 192°
2026-04-26 16:24 44.99136 10.95227 26770 ft 471 kts 192°
2026-04-26 16:25 44.95951 10.94413 27161 ft 470 kts 192°
2026-04-26 16:25 44.92739 10.93593 27562 ft 469 kts 192°
2026-04-26 16:25 44.89540 10.92777 27960 ft 468 kts 192°
2026-04-26 16:25 44.86344 10.91962 28363 ft 467 kts 192°
2026-04-26 16:26 44.83116 10.91141 28779 ft 466 kts 192°
2026-04-26 16:26 44.79954 10.90337 29185 ft 465 kts 192°
2026-04-26 16:26 44.76795 10.89534 29605 ft 464 kts 192°
2026-04-26 16:26 44.73638 10.88733 30035 ft 463 kts 192°
2026-04-26 16:27 44.70441 10.87923 30470 ft 461 kts 192°
2026-04-26 16:27 44.67302 10.87128 30900 ft 460 kts 192°
2026-04-26 16:27 44.64159 10.86333 31343 ft 458 kts 192°
2026-04-26 16:27 44.61043 10.85546 31766 ft 457 kts 192°
2026-04-26 16:28 44.57927 10.84758 32183 ft 455 kts 192°
2026-04-26 16:28 44.54820 10.83974 32595 ft 454 kts 192°
2026-04-26 16:28 44.51713 10.83191 33005 ft 453 kts 192°
2026-04-26 16:28 44.48630 10.82415 33392 ft 451 kts 192°
2026-04-26 16:29 44.45544 10.81639 33743 ft 451 kts 192°
2026-04-26 16:29 44.42461 10.80864 34049 ft 452 kts 192°
2026-04-26 16:29 44.39376 10.80090 34343 ft 452 kts 192°
2026-04-26 16:29 44.36279 10.79314 34609 ft 453 kts 192°
2026-04-26 16:30 44.33192 10.78542 34862 ft 454 kts 192°
2026-04-26 16:30 44.30079 10.77764 35110 ft 454 kts 192°
2026-04-26 16:30 44.26990 10.76993 35245 ft 455 kts 192°
2026-04-26 16:30 44.23852 10.76211 35262 ft 455 kts 192°
2026-04-26 16:31 44.17668 10.74673 35253 ft 454 kts 192°
2026-04-26 16:31 44.11439 10.73126 35189 ft 453 kts 192°
2026-04-26 16:32 44.06281 10.71847 35119 ft 453 kts 192°
2026-04-26 16:32 43.99051 10.70058 35044 ft 454 kts 192°
2026-04-26 16:33 43.92829 10.68523 34998 ft 454 kts 192°
2026-04-26 16:33 43.86611 10.66991 34961 ft 454 kts 192°
2026-04-26 16:34 43.80418 10.65468 34935 ft 455 kts 192°
2026-04-26 16:34 43.74200 10.63943 34973 ft 455 kts 192°
2026-04-26 16:35 43.71078 10.63178 35185 ft 453 kts 192°
2026-04-26 16:35 43.67969 10.62417 35482 ft 449 kts 192°
2026-04-26 16:35 43.64932 10.61675 35815 ft 445 kts 192°
2026-04-26 16:35 43.61889 10.60932 36132 ft 443 kts 192°
2026-04-26 16:36 43.55770 10.59439 36073 ft 452 kts 192°
2026-04-26 16:36 43.52696 10.58691 35891 ft 452 kts 192°
2026-04-26 16:36 43.49607 10.57940 35641 ft 451 kts 192°
2026-04-26 16:37 43.46497 10.57184 35473 ft 451 kts 192°
2026-04-26 16:37 43.43396 10.56432 35356 ft 452 kts 192°
2026-04-26 16:37 43.37215 10.54934 35173 ft 452 kts 192°
2026-04-26 16:38 43.31013 10.53434 35102 ft 453 kts 192°
2026-04-26 16:38 43.24824 10.51941 35103 ft 455 kts 192°
2026-04-26 16:39 43.18581 10.50439 35103 ft 455 kts 192°
2026-04-26 16:39 43.12389 10.48953 35089 ft 455 kts 192°
2026-04-26 16:40 43.06144 10.47456 35088 ft 454 kts 192°
2026-04-26 16:40 42.99946 10.45972 35088 ft 454 kts 192°
2026-04-26 16:41 42.93705 10.44480 35099 ft 454 kts 192°
2026-04-26 16:41 42.87511 10.43004 35115 ft 454 kts 192°
2026-04-26 16:42 42.81266 10.41609 35122 ft 455 kts 188°
2026-04-26 16:42 42.74935 10.41757 35131 ft 458 kts 174°
2026-04-26 16:43 42.68796 10.43964 35137 ft 461 kts 160°
2026-04-26 16:43 42.63113 10.48106 35144 ft 464 kts 149°
2026-04-26 16:44 42.57724 10.52821 35143 ft 464 kts 149°
2026-04-26 16:44 42.52287 10.57575 35143 ft 464 kts 149°
2026-04-26 16:45 42.46890 10.62259 35140 ft 464 kts 149°
2026-04-26 16:45 42.41474 10.66938 35135 ft 463 kts 149°
2026-04-26 16:46 42.36027 10.71629 35132 ft 464 kts 149°
2026-04-26 16:46 42.30598 10.76293 35129 ft 464 kts 149°
2026-04-26 16:47 42.25147 10.80967 35127 ft 464 kts 149°
2026-04-26 16:47 42.19727 10.85604 35125 ft 464 kts 149°
2026-04-26 16:48 42.14275 10.90260 35120 ft 464 kts 149°
2026-04-26 16:48 42.08826 10.94902 35115 ft 464 kts 149°
2026-04-26 16:49 42.03371 10.99541 35112 ft 464 kts 149°
2026-04-26 16:49 41.97915 11.04170 35111 ft 464 kts 149°
2026-04-26 16:50 41.92445 11.08803 35109 ft 464 kts 149°
2026-04-26 16:50 41.87005 11.13400 35094 ft 465 kts 149°
2026-04-26 16:51 41.81521 11.18024 35079 ft 464 kts 149°
2026-04-26 16:51 41.76075 11.22607 35084 ft 464 kts 148°
2026-04-26 16:52 41.71527 11.26428 35092 ft 464 kts 148°
2026-04-26 16:52 41.65165 11.31763 35095 ft 464 kts 148°
2026-04-26 16:53 41.59669 11.36361 35104 ft 464 kts 148°
2026-04-26 16:53 41.54205 11.40923 35116 ft 464 kts 148°
2026-04-26 16:54 41.48730 11.45484 35127 ft 464 kts 148°
2026-04-26 16:54 41.43249 11.50041 35137 ft 465 kts 148°
2026-04-26 16:55 41.37791 11.54570 35140 ft 465 kts 148°
2026-04-26 16:55 41.32282 11.59133 35139 ft 465 kts 148°
2026-04-26 16:56 41.24082 11.65906 35137 ft 465 kts 149°
2026-04-26 16:57 41.18612 11.70413 35135 ft 464 kts 149°
2026-04-26 16:57 41.10369 11.77188 35135 ft 464 kts 149°
2026-04-26 16:58 41.05815 11.80922 35135 ft 464 kts 149°
2026-04-26 16:59 40.96688 11.88388 35134 ft 464 kts 149°
2026-04-26 17:00 40.85705 11.97340 35130 ft 463 kts 149°
2026-04-26 17:00 40.77514 12.03994 35132 ft 463 kts 149°
2026-04-26 17:01 40.72030 12.08433 35134 ft 463 kts 149°
2026-04-26 17:01 40.66532 12.12876 35132 ft 463 kts 149°
2026-04-26 17:02 40.61055 12.17296 35126 ft 463 kts 149°
2026-04-26 17:02 40.55564 12.21718 35121 ft 462 kts 149°
2026-04-26 17:03 40.50084 12.26124 35119 ft 462 kts 149°
2026-04-26 17:03 40.44625 12.30505 35120 ft 462 kts 149°
2026-04-26 17:04 40.39117 12.34915 35121 ft 462 kts 149°
2026-04-26 17:04 40.33659 12.39278 35121 ft 462 kts 149°
2026-04-26 17:05 40.28187 12.43644 35122 ft 462 kts 149°
2026-04-26 17:05 40.22700 12.48014 35123 ft 462 kts 149°
2026-04-26 17:06 40.17191 12.52390 35123 ft 462 kts 149°
2026-04-26 17:06 40.11716 12.56732 35124 ft 462 kts 149°
2026-04-26 17:07 40.06232 12.61073 35125 ft 462 kts 149°
2026-04-26 17:07 40.00723 12.65425 35124 ft 462 kts 150°
2026-04-26 17:08 39.95231 12.69758 35129 ft 462 kts 150°
2026-04-26 17:08 39.89715 12.74101 35129 ft 462 kts 150°
2026-04-26 17:09 39.85134 12.77702 35128 ft 462 kts 150°
2026-04-26 17:09 39.78746 12.82714 35131 ft 462 kts 150°
2026-04-26 17:10 39.73220 12.87039 35135 ft 462 kts 150°
2026-04-26 17:10 39.67740 12.91320 35135 ft 463 kts 150°
2026-04-26 17:11 39.62197 12.95642 35133 ft 463 kts 150°
2026-04-26 17:11 39.56699 12.99921 35130 ft 463 kts 150°
2026-04-26 17:12 39.48394 13.06369 35129 ft 463 kts 150°
2026-04-26 17:13 39.40119 13.12777 35129 ft 464 kts 150°
2026-04-26 17:14 39.31821 13.19184 35126 ft 464 kts 150°
2026-04-26 17:14 39.23539 13.25562 34898 ft 459 kts 150°
2026-04-26 17:15 39.18005 13.29813 34484 ft 460 kts 150°
2026-04-26 17:15 39.15301 13.31888 34276 ft 458 kts 150°
2026-04-26 17:15 39.12572 13.33980 34001 ft 456 kts 150°
2026-04-26 17:16 39.09828 13.36081 33724 ft 456 kts 150°
2026-04-26 17:16 39.07120 13.38152 33450 ft 456 kts 151°
2026-04-26 17:16 39.04380 13.40246 33174 ft 457 kts 151°
2026-04-26 17:16 39.01670 13.42316 32889 ft 457 kts 151°
2026-04-26 17:17 38.98913 13.44418 32599 ft 458 kts 151°
2026-04-26 17:17 38.96165 13.46513 32312 ft 459 kts 151°
2026-04-26 17:17 38.93418 13.48604 32024 ft 459 kts 151°
2026-04-26 17:17 38.90693 13.50678 31741 ft 460 kts 151°
2026-04-26 17:18 38.87917 13.52789 31454 ft 461 kts 151°
2026-04-26 17:18 38.85156 13.54885 31168 ft 462 kts 151°
2026-04-26 17:18 38.82392 13.56983 30884 ft 463 kts 151°
2026-04-26 17:18 38.79637 13.59071 30601 ft 464 kts 151°
2026-04-26 17:19 38.74067 13.63288 30032 ft 466 kts 151°
2026-04-26 17:19 38.71267 13.65405 29762 ft 466 kts 152°
2026-04-26 17:19 38.68486 13.67505 29492 ft 467 kts 152°
2026-04-26 17:20 38.65673 13.69627 29222 ft 467 kts 152°
2026-04-26 17:20 38.63813 13.71030 29043 ft 468 kts 152°
2026-04-26 17:20 38.60095 13.73831 28687 ft 468 kts 152°
2026-04-26 17:20 38.57256 13.75967 28410 ft 469 kts 152°
2026-04-26 17:21 38.54460 13.78068 28140 ft 469 kts 152°
2026-04-26 17:21 38.51636 13.80189 27867 ft 470 kts 152°
2026-04-26 17:21 38.48816 13.82305 27595 ft 470 kts 152°
2026-04-26 17:21 38.46003 13.84415 27319 ft 471 kts 152°
2026-04-26 17:22 38.43206 13.86509 26833 ft 472 kts 152°
2026-04-26 17:22 38.40355 13.88642 26124 ft 472 kts 152°
2026-04-26 17:22 38.37519 13.90762 25285 ft 473 kts 152°
2026-04-26 17:22 38.34710 13.92860 24565 ft 466 kts 152°
2026-04-26 17:23 38.31963 13.94911 23976 ft 459 kts 151°
2026-04-26 17:23 38.29221 13.96956 23406 ft 455 kts 151°
2026-04-26 17:23 38.26507 13.98978 22848 ft 450 kts 151°
2026-04-26 17:23 38.23813 14.00983 22304 ft 446 kts 151°
2026-04-26 17:24 38.21145 14.02972 21741 ft 442 kts 151°
2026-04-26 17:24 38.18503 14.04939 21171 ft 437 kts 151°
2026-04-26 17:24 38.15899 14.06875 20605 ft 433 kts 151°
2026-04-26 17:24 38.13332 14.08782 20029 ft 429 kts 151°
2026-04-26 17:25 38.10777 14.10678 19440 ft 419 kts 151°
2026-04-26 17:25 38.08286 14.12525 18857 ft 410 kts 151°
2026-04-26 17:25 38.05844 14.14333 18284 ft 405 kts 150°
2026-04-26 17:25 38.03424 14.16123 17723 ft 402 kts 150°
2026-04-26 17:26 38.01048 14.17878 17151 ft 394 kts 150°
2026-04-26 17:26 37.98696 14.19616 16582 ft 388 kts 150°
2026-04-26 17:26 37.96352 14.21349 16005 ft 385 kts 150°
2026-04-26 17:26 37.94065 14.23037 15461 ft 381 kts 150°
2026-04-26 17:27 37.91808 14.24701 14923 ft 378 kts 150°
2026-04-26 17:27 37.89539 14.26373 14389 ft 376 kts 150°
2026-04-26 17:27 37.87280 14.28036 13943 ft 370 kts 150°
2026-04-26 17:27 37.85090 14.29647 13500 ft 364 kts 150°
2026-04-26 17:28 37.82881 14.31271 12850 ft 366 kts 150°
2026-04-26 17:28 37.80696 14.32873 12260 ft 365 kts 150°
2026-04-26 17:28 37.78487 14.34491 11774 ft 360 kts 150°
2026-04-26 17:28 37.76365 14.36046 11464 ft 345 kts 150°
2026-04-26 17:29 37.74380 14.37501 11258 ft 322 kts 150°
2026-04-26 17:29 37.73092 14.38446 11122 ft 314 kts 150°
2026-04-26 17:29 37.70642 14.40240 10853 ft 299 kts 150°
2026-04-26 17:29 37.68873 14.41536 10663 ft 285 kts 150°
2026-04-26 17:30 37.67180 14.42775 10497 ft 280 kts 150°
2026-04-26 17:30 37.65483 14.44015 10335 ft 280 kts 150°
2026-04-26 17:30 37.63777 14.45263 10079 ft 289 kts 149°
2026-04-26 17:30 37.62235 14.46874 9712 ft 289 kts 128°
2026-04-26 17:31 37.61312 14.49087 9270 ft 289 kts 109°
2026-04-26 17:31 37.60671 14.51492 8885 ft 286 kts 108°
2026-04-26 17:31 37.60063 14.53848 8639 ft 285 kts 108°
2026-04-26 17:31 37.59438 14.56215 8431 ft 277 kts 108°
2026-04-26 17:32 37.58823 14.58500 8045 ft 276 kts 108°
2026-04-26 17:32 37.58198 14.60775 7607 ft 278 kts 110°
2026-04-26 17:32 37.57204 14.62831 7156 ft 278 kts 135°
2026-04-26 17:32 37.55582 14.64054 6943 ft 266 kts 165°
2026-04-26 17:33 37.53794 14.64199 6888 ft 249 kts 190°
2026-04-26 17:33 37.52147 14.63650 6566 ft 248 kts 197°
2026-04-26 17:33 37.50467 14.63051 6114 ft 251 kts 194°
2026-04-26 17:34 37.47035 14.62534 5273 ft 257 kts 167°
2026-04-26 17:34 37.45520 14.63651 5001 ft 247 kts 129°
2026-04-26 17:34 37.44620 14.65346 4990 ft 224 kts 117°
2026-04-26 17:34 37.44049 14.67152 4861 ft 220 kts 106°
2026-04-26 17:35 37.43705 14.69006 4709 ft 213 kts 97°
2026-04-26 17:35 37.43636 14.70791 4549 ft 199 kts 88°
2026-04-26 17:35 37.43759 14.72455 4497 ft 180 kts 82°
2026-04-26 17:35 37.43917 14.73921 4463 ft 161 kts 81°
2026-04-26 17:36 37.44064 14.75302 4473 ft 156 kts 82°
2026-04-26 17:36 37.44198 14.76652 4381 ft 156 kts 82°
2026-04-26 17:36 37.44322 14.77999 4183 ft 155 kts 83°
2026-04-26 17:36 37.44437 14.79335 3981 ft 154 kts 83°
2026-04-26 17:37 37.44549 14.80688 3778 ft 154 kts 83°
2026-04-26 17:37 37.44655 14.82009 3581 ft 154 kts 83°
2026-04-26 17:37 37.44761 14.83344 3383 ft 153 kts 83°
2026-04-26 17:38 37.44971 14.85992 3036 ft 150 kts 83°
2026-04-26 17:38 37.45075 14.87296 2842 ft 149 kts 83°
2026-04-26 17:38 37.45181 14.88599 2646 ft 149 kts 83°
2026-04-26 17:38 37.45287 14.89898 2444 ft 149 kts 83°
2026-04-26 17:39 37.45391 14.91177 2245 ft 148 kts 83°
2026-04-26 17:39 37.45497 14.92475 2045 ft 147 kts 83°
2026-04-26 17:39 37.45602 14.93744 1851 ft 147 kts 83°
2026-04-26 17:39 37.45707 14.95013 1660 ft 144 kts 83°
2026-04-26 17:40 37.45809 14.96259 1459 ft 140 kts 83°
2026-04-26 17:40 37.45875 14.97056 1342 ft 139 kts 83°
2026-04-26 17:40 37.46009 14.98660 1106 ft 137 kts 83°
2026-04-26 17:40 37.46108 14.99849 930 ft 135 kts 83°
2026-04-26 17:41 37.46205 15.01008 753 ft 133 kts 83°
2026-04-26 17:41 37.46316 15.02147 577 ft 131 kts 81°
2026-04-26 17:41 37.46421 15.03285 389 ft 128 kts 84°
2026-04-26 17:41 37.46493 15.04386 200 ft 127 kts 84°
2026-04-26 17:42 37.46593 15.05488 54 ft 125 kts 82°
2026-04-26 17:42 37.46664 15.06441 34 ft 51 kts 85°
2026-04-26 17:42 37.46676 15.06612 32 ft 19 kts 84°
2026-04-26 17:42 37.46702 15.06841 31 ft 15 kts 76°
2026-04-26 17:43 37.46767 15.06906 32 ft 0 kts 355°
2026-04-26 17:43 37.46768 15.06906 32 ft 0 kts 356°
2026-04-26 17:43 37.46787 15.06904 32 ft 4 kts 350°
2026-04-26 17:44 37.46820 15.06889 32 ft 6 kts 337°
2026-04-26 17:44 37.46853 15.06851 32 ft 6 kts 287°
2026-04-26 17:44 37.46854 15.06779 31 ft 8 kts 263°
2026-04-26 17:44 37.46856 15.06706 31 ft 8 kts 307°
2026-04-26 17:45 37.46905 15.06685 32 ft 3 kts 354°
2026-04-26 17:45 37.46913 15.06684 33 ft 0 kts 355°